Home > Time Zones > World Clock > Weather > Spain > Lugo > Past weeks

Flag for Spain Weather past 2 weeks in Lugo, Galicia, Spain

Now
57 °F

Scattered clouds.


Feels Like: 57 °F
Forecast: 35 / 68 °F
Wind: 3 mph from North

Location: Santiago / Labacolla

Current Time: Apr 19, 2015 at 6:10:38 PM

Latest Report: Apr 19, 2015 at 5:30 PM


Visibility: N/A

Pressure: 30.07 "Hg

Humidity: 67%

Dew point: 46 °F

Location of LugoLocation

Historic Weather in Lugo — Graph

°F

Lugo temperature yesterday

Maximum temperature yesterday: 57 °F (at 4:00 PM)
Minimum temperature yesterday: 43 °F (at 8:00 AM)
Average temperature yesterday: 48 °F

Past Weeks' High & Low Weather Summary

 TemperatureHumidityPressure
High79 °F (Apr 13, 5:00 PM)100% (Apr 9, 5:30 AM)30.33 "Hg (Apr 9, 5:30 AM)
Low39 °F (Apr 19, 7:30 AM)21% (Apr 5, 6:00 PM)29.80 "Hg (Apr 5, 5:30 PM)
Average56 °F74%30.09 "Hg
* Reported Apr 4 5:00 PM — Apr 19 5:00 PM, Lugo, Weather by CustomWeather, © 2015

Note: Actual official high and low records may vary slightly from our data, if they occured in-between our weather recording intervals... More about our weather records

Advertising

Lugo weather history for previous 24 hours

 ConditionsComfort  
Time TempWeatherWind HumidityBarometerVisibility
5:00 PM
Sun, Apr 19
57 °FScattered clouds.3 mph67%30.07 "HgN/A
4:30 PM57 °FScattered clouds.3 mph67%30.07 "HgN/A
4:00 PM55 °FScattered clouds.2 mph67%30.09 "HgN/A
3:30 PM55 °FPartly sunny.3 mph72%30.09 "HgN/A
3:00 PM55 °FPartly sunny.2 mph67%30.09 "HgN/A
2:30 PM57 °FScattered clouds.3 mph63%30.09 "HgN/A
2:00 PM55 °FScattered clouds.1 mph67%30.09 "HgN/A
1:30 PM55 °FScattered clouds.2 mph67%30.09 "HgN/A
1:00 PM54 °FScattered clouds.1 mph72%30.09 "HgN/A
12:30 PM55 °FScattered clouds.3 mph67%30.09 "HgN/A
12:00 PM54 °FScattered clouds.3 mph72%30.09 "HgN/A
11:30 AM52 °FScattered clouds.1 mph77%30.09 "HgN/A
11:00 AM50 °FScattered clouds.No wind88%30.09 "HgN/A
10:30 AM48 °FFog.2 mph94%30.09 "Hg5 mi
10:00 AM46 °FFog.No wind93%30.09 "Hg5 mi
9:30 AM43 °FFog.2 mph100%30.09 "Hg4 mi
9:00 AM43 °FFog.2 mph100%30.09 "Hg4 mi
8:30 AM41 °FFog.3 mph100%30.07 "Hg4 mi
8:00 AM41 °FFog.6 mph100%30.07 "Hg3 mi
7:30 AM39 °FPassing clouds.3 mph100%30.07 "Hg1 mi
7:00 AM41 °FFog.5 mph100%30.07 "Hg0 mi
6:30 AM41 °FLight fog.3 mph93%30.07 "Hg1 mi
6:00 AM41 °FFog.3 mph100%30.07 "Hg2 mi
5:30 AM41 °FFog.2 mph100%30.07 "Hg2 mi
5:00 AM43 °FPassing clouds.No wind100%30.07 "HgN/A
4:30 AM43 °FPassing clouds.No wind100%30.07 "HgN/A
4:00 AM43 °FPassing clouds.No wind100%30.07 "HgN/A
3:30 AM43 °FPassing clouds.1 mph93%30.07 "HgN/A
3:00 AM43 °FPassing clouds.No wind93%30.07 "HgN/A
2:30 AM45 °FPassing clouds.1 mph100%30.07 "HgN/A
2:00 AM45 °FPassing clouds.No wind93%30.07 "HgN/A
1:30 AM43 °FPassing clouds.No wind100%30.07 "HgN/A
1:00 AM43 °FPassing clouds.No wind100%30.07 "HgN/A
12:30 AM45 °FPassing clouds.1 mph93%30.07 "HgN/A
12:00 AM43 °FPassing clouds.No wind100%30.07 "HgN/A
11:30 PM
Sat, Apr 18
45 °FPassing clouds.No wind93%30.04 "HgN/A
11:00 PM45 °FPassing clouds.1 mph93%30.04 "HgN/A
10:30 PM46 °FPassing clouds.1 mph87%30.04 "HgN/A
10:00 PM46 °FPassing clouds.3 mph93%30.04 "HgN/A
9:30 PM48 °FPassing clouds.9 mph87%30.01 "HgN/A
9:00 PM50 °FScattered clouds.8 mph82%30.01 "HgN/A
8:30 PM52 °FScattered clouds.6 mph82%29.98 "HgN/A
8:00 PM52 °FScattered clouds.6 mph82%29.98 "HgN/A
7:30 PM54 °FScattered clouds.7 mph72%29.98 "HgN/A
7:00 PM54 °FScattered clouds.3 mph72%29.98 "HgN/A
6:30 PM54 °FScattered clouds.6 mph72%29.95 "HgN/A
6:00 PM54 °FScattered clouds.8 mph67%29.95 "HgN/A
Weather by CustomWeather, © 2015

See weather overviewHow to use our weather pages